Skip Page Navigation
NASA JPL Caltech
NASA Logo - Jet Propulsion Laboratory + View the NASA Portal
+ Near-Earth Object (NEO) Program
Search JPL
JPL Home Earth Solar System Stars & Galaxies Technology
JPL Solar System Dynamics
BODIES ORBITS EPHEMERIDES TOOLS PHYSICAL DATA DISCOVERY FAQ SITE MAP
JPL Small-Body Database Browser
Search: [ help ]  
30440 Larry (2000 MG)
Classification: Main-belt Asteroid          SPK-ID: 2030440
Ephemeris | Orbit Diagram | Orbital Elements | Physical Parameters | Discovery Circumstances | Close-Approach Data ]

[ show orbit diagram ]
Orbital Elements at Epoch 2457600.5 (2016-Jul-31.0) TDB
Reference: JPL 10 (heliocentric ecliptic J2000)
 Element Value Uncertainty (1-sigma)   Units 
e .200917061806016 6.224e-08  
a 2.999433775976016 3.3813e-08 au
q 2.396796354625191 1.9568e-07 au
i 1.423890597657102 8.1253e-06 deg
node 354.4999047334488 0.00022951 deg
peri 250.4132640237551 0.00023048 deg
M 53.72204308890289 2.0152e-05 deg
tp 2457317.355999767305
(2015-Oct-21.85599977)
0.00010555 JED
period 1897.393215576078
5.19
3.2085e-05
8.784e-08
d
yr
n .1897339976999435 3.2084e-09 deg/d
Q 3.602071197326841 4.0607e-08 au
  Orbit Determination Parameters
   # obs. used (total)      566  
   data-arc span      11306 days (30.95 yr)  
   first obs. used      1984-06-01  
   last obs. used      2015-05-16  
   planetary ephem.      DE431  
   SB-pert. ephem.      SB431-BIG16  
   condition code      0  
   fit RMS      .60835  
   data source      ORB  
   producer      Otto Matic  
   solution date      2015-Jun-04 17:02:18  

Additional Information
 Earth MOID = 1.38387 au 
 Jupiter MOID = 1.431 au 
 T_jup = 3.222 
[ show covariance matrix ]

Ephemeris | Orbit Diagram | Orbital Elements | Physical Parameters | Discovery Circumstances | Close-Approach Data ]

Physical Parameter Table
Parameter Symbol Value Units Sigma Reference Notes
absolute magnitude H 14.7 mag n/a MPO257076  

30440 Larry           Discovered 2000 June 22 by J. Broughton at Reedy Creek Observatory.
Philadelphia-born Larry Fine (Louis Feinberg, 1902-1975) was a longtime member of "The Three Stooges". The one in the middle with a scared-porcupine hairstyle, Larry was often the recipient of the collateral damage of slaps, pokes and bumps while trying to keep the peace between the other two.
NOTE: some special characters may not display properly (any characters within {} are an attempt to place the proper accent above a character)
Reference: 20020427/MPCPages.arcLast Updated: 2003-10-02

[ show close-approach data ]
Ephemeris | Orbit Diagram | Orbital Elements | Physical Parameters | Discovery Circumstances | Close-Approach Data ]
ABOUT SSD CREDITS/AWARDS PRIVACY/COPYRIGHT GLOSSARY LINKS
FirstGov 2016-May-03 20:08 UT
(server date/time)  
NASA Home Page
Site Manager:   Ryan S. Park
Webmaster  Alan B. Chamberlin